[Iaude] MPEC M120: 2024 MN1 [a=2.21,e=0.42,i=9.0,H=21.4]

mpec at cfa.harvard.edu mpec at cfa.harvard.edu
Sun Jun 30 04:28:39 EDT 2024


M.P.E.C. 2024-M120                                Issued 2024 June 30, 08:26 UT

     The Minor Planet Electronic Circulars contain information on unusual
         minor planets, routine data on comets and natural satellites,
         and occasional editorial announcements.  They are published
    on behalf of Division F of the International Astronomical Union by the
          Minor Planet Center, Smithsonian Astrophysical Observatory,
                          Cambridge, MA 02138, U.S.A.
			  
             Prepared using the Tamkin Foundation Computer Network

                              MPC at CFA.HARVARD.EDU
            URL https://www.minorplanetcenter.net/    ISSN 1523-6714

                                    2024 MN1                                    


Observations:
     K24M01N* C2024 06 27.52346620 16 08.023+02 37 12.98         21.24wXEM120F51
     K24M01N  C2024 06 27.53214920 16 08.800+02 37 11.83         21.24wXEM120F51
     K24M01N  C2024 06 27.54221220 16 09.705+02 37 10.63         20.73wXEM120F51
     K24M01N  C2024 06 27.55100520 16 10.496+02 37 09.48         21.22wXEM120F51
     K24M01N KC2024 06 28.30899 20 17 26.95 +02 35 21.5          20.6 RVEM120291
     K24M01N KC2024 06 28.31428 20 17 27.41 +02 35 20.3          21.0 RVEM120291
     K24M01N KC2024 06 28.31953 20 17 27.90 +02 35 20.2          20.5 RVEM120291
     K24M01N  C2024 06 28.47424420 17 43.059+02 35 00.56         20.66GVEM120F51
     K24M01N  C2024 06 28.47506320 17 43.140+02 35 00.49         20.28GVEM120F51
     K24M01N pC2024 06 28.97291620 18 32.73 +02 33 26.0          19.7 GXEM120595
     K24M01N KC2024 06 28.98692320 18 34.03 +02 33 23.5          20.3 GXEM120595
     K24M01N pC2024 06 28.99626020 18 34.89 +02 33 21.8                XEM120595
     K24M01N |C2024 06 29.22792020 18 57.990+02 33 09.70         20.6 GVEM120807
     K24M01N |C2024 06 29.23342020 18 58.490+02 33 08.60         21.1 GVEM120807
     K24M01N |C2024 06 29.23895020 18 58.990+02 33 07.20         20.8 GVEM120807
     K24M01N KC2024 06 30.32928920 20 46.74 +02 28 40.7          21.0 GVEM120H21
     K24M01N KC2024 06 30.33252920 20 47.03 +02 28 40.0                VEM120H21
     K24M01N KC2024 06 30.33500720 20 47.27 +02 28 39.9                VEM120H21

Observer details:
291 LPL/Spacewatch II.  Observer R. A. Mastaler.  1.8-m f/2.7 reflector + CCD.
595 Farra d'Isonzo.  Observer E. Pettarin.  0.61-m f/4.5 reflector + CCD.
807 Cerro Tololo Observatory, La Serena.  Observers T. Linder, R. Holmes.
    0.61-m f/6.8 Ritchey-Chretien + CCD.
F51 Pan-STARRS 1, Haleakala.  Observers J. Herman, T. Lowe, P. Minguez, A.
    Schultz, I. Smith.  Measurers K. Chambers, T. de Boer, J. Fairlamb, H.
    Gao, M. Huber, C.-C. Lin, E. Magnier, Y. Ramanjooloo, R. Wainscoat, R.
    Weryk.  1.8-m Ritchey-Chretien + CCD.
H21 Astronomical Research Observatory, Westfield.  Observer R. Holmes.
    Measurers T. Linder, R. Holmes, L. Horn.  0.76-m f/3.0 astrograph + CCD.

Orbital elements:
2024 MN1                                                 Earth MOID = 0.2617 AU
Epoch 2024 Mar. 31.0 TT = JDT 2460400.5                 MPC                     
M 323.54215              (2000.0)            P               Q                  
n   0.30023925     Peri.  166.84525     +0.63677008     +0.76517179             
a   2.2088069      Node   142.57975     -0.72083493     +0.63452031             
e   0.4234064      Incl.    8.99995     -0.27371676     +0.10906932             
P   3.28           H   21.42          G   0.15           U   8                  
Residuals in seconds of arc
240627 F51  0.0   0.1+    240628 291  0.2-  0.0     240629 807  0.1+  0.2+
240627 F51  0.0   0.0     240628 F51  0.1-  0.0     240629 807  0.1+  0.2+
240627 F51  0.0   0.0     240628 F51  0.0   0.0     240629 807  0.1+  0.2-
240627 F51  0.0   0.1-    240628 595  0.0   0.0     240630 H21  0.1-  0.2-
240628 291  0.0   0.2-    240628 595  0.1+  0.0     240630 H21  0.1-  0.1-
240628 291  0.3-  0.7-    240628 595  0.2+  0.0     240630 H21  0.1+  0.4+

Ephemeris:
2024 MN1                 a,e,i = 2.21, 0.42, 9                   q = 1.2736
Date    TT    R. A. (2000) Decl.     Delta      r    Elong.  Phase     V
2024 05 31    19 29 31.9 +00 15 55   0.5076  1.4024   131.4    32.8    22.1
...
2024 06 15    19 55 12.0 +02 13 57   0.4140  1.3492   137.2    30.8    21.5
...
2024 06 23    20 08 36.4 +02 39 26   0.3728  1.3258   140.6    29.1    21.2
...
2024 06 29    20 18 34.9 +02 33 39   0.3458  1.3108   143.5    27.5    20.9
2024 06 30    20 20 14.1 +02 30 14   0.3417  1.3085   144.0    27.2    20.9
2024 07 01    20 21 53.2 +02 26 04   0.3376  1.3063   144.5    26.9    20.9
...
2024 07 07    20 31 45.0 +01 44 00   0.3153  1.2945   147.8    24.7    20.6
...
2024 07 15    20 44 50.1 -00 01 26   0.2912  1.2827   153.0    21.1    20.3
...
2024 07 30    21 09 11.2 -05 49 53   0.2654  1.2736   165.2    11.8    19.8

A. U. Tomatic                (C) Copyright 2024 MPC           M.P.E.C. 2024-M120





More information about the Iaude mailing list